IA5ITY-13 Weather Reports


time (UTC)temp
C
wind
direction
speed
KPH
gust
KPH
rain 1hr
cm
rain 24hr
cm
rain mn
cm
humidity
%
barometer
mb
20260507070510 22 95 0.0 0.0 0.00 0.00 0.00 58 1012.9
20260507070033 22 92 0.0 0.0 0.00 0.00 0.00 60 1012.9
20260507065511 22 84 0.0 0.0 0.00 0.00 0.00 63 1012.8
20260507065014 22 82 0.0 0.0 0.00 0.00 0.00 63 1012.8
20260507064514 21 87 0.0 0.0 0.00 0.00 0.00 65 1012.7
20260507064014 21 90 0.0 0.0 0.00 0.00 0.00 70 1012.6
20260507063509 21 107 0.0 0.0 0.00 0.00 0.00 73 1012.6
20260507063023 21 91 0.0 0.0 0.00 0.00 0.00 82 1012.5
20260507062510 20 92 0.0 0.0 0.00 0.00 0.00 88 1012.5
20260507062013 18 85 0.0 0.0 0.00 0.00 0.00 86 1012.5
20260507061512 20 94 0.0 0.0 0.00 0.00 0.00 90 1012.5
20260507060510 17 67 0.0 0.0 0.00 0.00 0.00 94 1012.4
20260507060034 17 67 0.0 0.0 0.00 0.00 0.00 94 1012.4
20260507055509 17 66 0.0 0.0 0.00 0.00 0.00 94 1012.3
20260507055014 17 68 0.0 0.0 0.00 0.00 0.00 99 1012.3
20260507054514 17 68 1.6 6.4 0.00 0.00 0.00 96 1012.2
20260507054013 17 33 4.8 6.4 0.00 0.00 0.00 99 1012.2
20260507053510 17 43 0.0 0.0 0.00 0.00 0.00 99 1012.2
20260507052510 16 60 0.0 0.0 0.00 0.00 0.00 99 1012.1
20260507052013 13 51 0.0 0.0 0.00 0.00 0.00 99 1012.0
20260507051513 13 49 0.0 0.0 0.00 0.00 0.00 99 1012.0
20260507051014 13 69 0.0 0.0 0.00 0.00 0.00 99 1011.9
20260507050510 13 50 0.0 0.0 0.00 0.00 0.00 99 1011.8
20260507050031 13 37 8.0 8.0 0.00 0.00 0.00 99 1011.8
20260507045509 12 43 4.8 4.8 0.00 0.00 0.00 99 1011.7
20260507045013 13 59 3.2 6.4 0.00 0.00 0.00 99 1011.6
20260507044513 13 44 6.4 6.4 0.00 0.00 0.00 99 1011.6
20260507044013 13 40 0.0 0.0 0.00 0.00 0.00 99 1011.6
20260507043509 12 48 1.6 1.6 0.00 0.00 0.00 99 1011.6
20260507043023 12 53 0.0 0.0 0.00 0.00 0.00 99 1011.6
20260507042509 12 42 0.0 0.0 0.00 0.00 0.00 99 1011.6
20260507042013 12 36 0.0 0.0 0.00 0.00 0.00 99 1011.6
20260507041513 12 52 0.0 0.0 0.00 0.00 0.00 99 1011.5
20260507041013 12 72 0.0 0.0 0.00 0.00 0.00 99 1011.5
20260507040509 12 68 3.2 6.4 0.00 0.00 0.00 99 1011.4
20260507040032 12 56 6.4 6.4 0.00 0.00 0.00 99 1011.4
20260507035509 12 51 3.2 3.2 0.00 0.00 0.00 99 1011.4
20260507035013 12 51 1.6 1.6 0.00 0.00 0.00 99 1011.5
20260507034014 12 44 1.6 3.2 0.00 0.00 0.00 99 1011.4
20260507033022 12 52 3.2 3.2 0.00 0.00 0.00 99 1011.3
20260507032509 12 79 1.6 1.6 0.00 0.00 0.00 99 1011.3
20260507032012 13 56 0.0 0.0 0.00 0.00 0.00 98 1011.3
20260507031512 13 63 0.0 0.0 0.00 0.00 0.00 98 1011.2
20260507031013 13 69 0.0 0.0 0.00 0.00 0.00 98 1011.2
20260507030509 15 74 0.0 0.0 0.00 0.00 0.00 99 1011.2
20260507030033 13 33 0.0 0.0 0.00 0.00 0.00 99 1011.2
20260507025509 13 29 0.0 0.0 0.00 0.00 0.00 99 1011.2
20260507025012 13 64 0.0 0.0 0.00 0.00 0.00 99 1011.2
20260507024513 13 41 0.0 0.0 0.00 0.00 0.00 99 1011.2
20260507024013 15 32 3.2 3.2 0.00 0.00 0.00 98 1011.2
20260507023509 15 46 0.0 0.0 0.00 0.00 0.00 99 1011.2
20260507023024 13 25 0.0 0.0 0.00 0.00 0.00 99 1011.2
20260507022509 15 50 0.0 0.0 0.00 0.00 0.00 99 1011.2
20260507022013 15 51 0.0 0.0 0.00 0.00 0.00 99 1011.1
20260507021512 15 35 0.0 0.0 0.00 0.00 0.00 99 1011.1
20260507021013 13 27 0.0 0.0 0.00 0.00 0.00 99 1011.2
20260507020509 13 52 1.6 1.6 0.00 0.00 0.00 99 1011.1
20260507020031 15 45 1.6 1.6 0.00 0.00 0.00 99 1011.1
20260507015509 15 59 0.0 0.0 0.00 0.00 0.00 99 1011.1
20260507015013 15 58 1.6 3.2 0.00 0.00 0.00 99 1011.0
20260507014513 15 45 0.0 0.0 0.00 0.00 0.00 99 1011.0
20260507014014 15 64 1.6 1.6 0.00 0.00 0.00 99 1011.0
20260507013022 15 86 0.0 0.0 0.00 0.00 0.00 99 1011.0
20260507012510 15 18 0.0 0.0 0.00 0.00 0.00 99 1010.9
20260507012014 15 50 0.0 0.0 0.00 0.00 0.00 99 1010.8
20260507011513 15 66 0.0 0.0 0.00 0.00 0.00 99 1010.8
20260507011012 15 25 0.0 0.0 0.00 0.00 0.00 99 1010.8
20260507010510 15 53 0.0 0.0 0.00 0.00 0.00 99 1010.9
20260507010032 15 70 0.0 0.0 0.00 0.00 0.00 99 1010.9
20260507005509 16 55 0.0 0.0 0.00 0.00 0.00 99 1010.9
20260507005013 15 41 0.0 0.0 0.00 0.00 0.00 99 1010.9
20260507004512 15 70 0.0 0.0 0.00 0.00 0.00 99 1011.0
20260507004014 15 57 1.6 1.6 0.00 0.00 0.00 99 1011.0
20260507003509 15 47 0.0 0.0 0.00 0.00 0.00 99 1011.0
20260507003023 16 36 1.6 1.6 0.00 0.00 0.00 99 1010.9
20260507002510 16 40 0.0 0.0 0.00 0.00 0.00 99 1010.9
20260507002014 15 27 0.0 0.0 0.00 0.00 0.00 99 1010.8
20260507001513 15 357 0.0 0.0 0.00 0.00 0.00 99 1010.8
20260507001012 15 34 0.0 0.0 0.00 0.00 0.00 99 1010.7
20260507000510 16 67 0.0 0.0 0.00 0.00 0.00 99 1010.7
20260507000034 15 61 0.0 0.0 0.00 0.00 0.00 99 1010.6
20260506235509 15 64 0.0 0.0 0.00 0.00 0.00 99 1010.6
20260506235013 15 65 0.0 0.0 0.00 0.00 0.00 99 1010.7
20260506234514 15 56 0.0 0.0 0.00 0.00 0.00 99 1010.7
20260506234013 15 51 0.0 0.0 0.00 0.00 0.00 99 1010.7
20260506233509 16 125 0.0 0.0 0.00 0.00 0.00 99 1010.7
20260506233023 15 67 0.0 0.0 0.00 0.00 0.00 99 1010.7
20260506232509 15 58 0.0 0.0 0.00 0.00 0.00 99 1010.7
20260506232012 13 39 0.0 0.0 0.00 0.00 0.00 99 1010.7
20260506231513 13 72 0.0 0.0 0.00 0.00 0.00 99 1010.7
20260506231013 13 71 1.6 3.2 0.00 0.00 0.00 99 1010.7
20260506230509 15 30 0.0 0.0 0.00 0.00 0.00 99 1010.6
20260506225511 15 56 0.0 0.0 0.00 0.00 0.00 99 1010.6
20260506225013 15 65 0.0 0.0 0.00 0.00 0.00 99 1010.6
20260506224513 15 59 1.6 1.6 0.00 0.00 0.00 99 1010.6
20260506224013 15 65 1.6 3.2 0.00 0.00 0.00 99 1010.6
20260506223509 15 60 0.0 0.0 0.00 0.00 0.00 99 1010.6
20260506222509 15 67 0.0 0.0 0.00 0.00 0.00 99 1010.7
20260506222013 15 73 1.6 1.6 0.00 0.00 0.00 99 1010.8
20260506221513 15 44 0.0 0.0 0.00 0.00 0.00 99 1010.7
20260506221014 15 47 0.0 0.0 0.00 0.00 0.00 99 1010.7
20260506220511 16 80 0.0 0.0 0.00 0.00 0.00 99 1010.6
20260506220034 16 74 0.0 0.0 0.00 0.00 0.00 99 1010.6
20260506214513 16 12 0.0 0.0 0.00 0.00 0.00 99 1010.6
20260506213023 16 60 0.0 0.0 0.00 0.00 0.00 99 1010.6
20260506212013 16 58 0.0 0.0 0.00 0.00 0.00 99 1010.6
20260506211514 17 72 0.0 0.0 0.00 0.00 0.00 99 1010.7
20260506211013 17 88 0.0 0.0 0.00 0.00 0.00 99 1010.8
20260506210509 17 94 0.0 0.0 0.00 0.00 0.00 99 1010.8
20260506210031 17 86 0.0 0.0 0.00 0.00 0.00 99 1010.7
20260506205509 17 78 0.0 0.0 0.00 0.00 0.00 99 1010.7
20260506205015 17 76 0.0 0.0 0.00 0.00 0.00 99 1010.7
20260506204014 17 83 0.0 0.0 0.00 0.00 0.00 99 1010.8
20260506203509 17 89 0.0 0.0 0.00 0.00 0.00 99 1010.7
20260506203024 17 95 0.0 0.0 0.00 0.00 0.00 99 1010.7
20260506202014 17 90 0.0 0.0 0.00 0.00 0.00 99 1010.6
20260506201513 17 61 0.0 0.0 0.00 0.00 0.00 99 1010.5
20260506200510 17 52 0.0 0.0 0.00 0.00 0.00 99 1010.5
20260506200031 17 69 0.0 0.0 0.00 0.00 0.00 99 1010.4
20260506195013 17 90 0.0 0.0 0.00 0.00 0.00 99 1010.3
20260506194512 17 77 0.0 0.0 0.00 0.00 0.00 99 1010.2
20260506194013 17 98 0.0 0.0 0.00 0.00 0.00 99 1010.2
20260506193509 17 79 0.0 0.0 0.00 0.00 0.00 99 1010.1
20260506193023 17 85 0.0 0.0 0.00 0.00 0.00 99 1010.0
20260506192509 17 11 0.0 0.0 0.00 0.00 0.00 99 1010.0
20260506191513 17 73 0.0 0.0 0.00 0.00 0.00 99 1009.9
20260506190033 17 83 0.0 0.0 0.00 0.00 0.00 99 1009.7
20260506185509 17 359 0.0 0.0 0.00 0.00 0.00 99 1009.7
20260506185014 17 78 1.6 1.6 0.00 0.00 0.00 99 1009.6
20260506184014 17 46 0.0 0.0 0.00 0.00 0.00 99 1009.4
20260506183510 17 46 0.0 0.0 0.00 0.00 0.00 99 1009.4
20260506183024 17 61 0.0 0.0 0.00 0.00 0.00 99 1009.3
20260506182510 17 87 0.0 0.0 0.00 0.00 0.00 99 1009.3
20260506182014 17 85 0.0 0.0 0.00 0.00 0.00 99 1009.4
20260506181513 17 76 0.0 0.0 0.00 0.00 0.00 99 1009.3
20260506180512 17 19 0.0 0.0 0.00 0.00 0.00 99 1009.3
20260506175509 17 60 0.0 0.0 0.00 0.00 0.00 99 1009.3
20260506175013 17 357 0.0 0.0 0.00 0.00 0.00 99 1009.3
20260506174013 17 80 0.0 0.0 0.00 0.00 0.00 99 1009.3
20260506173509 17 66 1.6 1.6 0.00 0.00 0.00 99 1009.3
20260506173025 17 88 1.6 1.6 0.00 0.00 0.00 99 1009.4
20260506172014 17 85 0.0 0.0 0.00 0.00 0.00 99 1009.2
20260506171513 17 82 0.0 0.0 0.00 0.00 0.00 99 1009.2
20260506171014 18 25 0.0 0.0 0.00 0.00 0.00 99 1009.2
20260506170509 18 64 0.0 0.0 0.00 0.00 0.00 99 1009.2
20260506170033 18 27 0.0 0.0 0.00 0.00 0.00 99 1009.2
20260506165013 18 33 0.0 0.0 0.00 0.00 0.00 99 1009.2
20260506164512 18 44 0.0 0.0 0.00 0.00 0.00 99 1009.2
20260506164013 18 22 0.0 0.0 0.00 0.00 0.00 99 1009.3
20260506163510 18 30 0.0 0.0 0.00 0.00 0.00 99 1009.3
20260506163025 18 54 0.0 0.0 0.00 0.00 0.00 99 1009.4
20260506162510 18 42 1.6 1.6 0.00 0.00 0.00 99 1009.3
20260506162013 18 63 0.0 0.0 0.00 0.00 0.00 98 1009.3
20260506161512 20 37 0.0 0.0 0.00 0.00 0.00 96 1009.4
20260506161014 20 19 0.0 0.0 0.00 0.00 0.00 96 1009.4
20260506160509 20 2 0.0 0.0 0.00 0.00 0.00 93 1009.4
20260506160035 20 51 0.0 0.0 0.00 0.00 0.00 92 1009.4
20260506155510 20 47 0.0 0.0 0.00 0.00 0.00 89 1009.4
20260506155014 21 29 0.0 0.0 0.00 0.00 0.00 88 1009.4
20260506154513 21 63 0.0 0.0 0.00 0.00 0.00 86 1009.4
20260506154013 21 91 0.0 0.0 0.00 0.00 0.00 90 1009.4
20260506153510 21 20 0.0 0.0 0.00 0.00 0.00 86 1009.4
20260506153026 22 67 0.0 0.0 0.00 0.00 0.00 83 1009.4
20260506152509 22 111 1.6 1.6 0.00 0.00 0.00 80 1009.5
20260506152012 22 162 0.0 0.0 0.00 0.00 0.00 82 1009.3
20260506150510 22 49 0.0 0.0 0.00 0.00 0.00 78 1009.5
20260506150034 22 74 1.6 1.6 0.00 0.00 0.00 85 1009.4
20260506145510 22 17 0.0 0.0 0.00 0.00 0.00 91 1009.4
20260506145014 21 45 0.0 0.0 0.00 0.00 0.00 92 1009.4
20260506144516 21 40 0.0 0.0 0.00 0.00 0.00 90 1009.5
20260506144013 21 56 0.0 0.0 0.00 0.00 0.00 93 1009.6
20260506143509 21 56 0.0 0.0 0.00 0.00 0.00 99 1009.5
20260506143023 20 185 1.6 1.6 0.00 0.00 0.00 99 1009.5
20260506142511 20 170 0.0 0.0 0.00 0.00 0.00 98 1009.5
20260506142013 20 122 0.0 0.0 0.00 0.00 0.00 98 1009.5
20260506141513 20 98 0.0 0.0 0.00 0.00 0.00 97 1009.6
20260506141013 21 170 0.0 0.0 0.00 0.00 0.00 90 1009.5
20260506140509 22 91 0.0 0.0 0.00 0.00 0.00 88 1009.6
20260506140034 21 94 0.0 0.0 0.00 0.00 0.00 92 1009.6
20260506135509 22 181 0.0 0.0 0.00 0.00 0.00 89 1009.7
20260506135014 21 135 0.0 0.0 0.00 0.00 0.00 90 1009.7
20260506134513 21 97 0.0 0.0 0.00 0.00 0.00 90 1009.7
20260506134015 22 26 0.0 0.0 0.00 0.00 0.00 85 1009.6
20260506133509 22 123 0.0 0.0 0.00 0.00 0.00 82 1009.7
20260506133024 22 94 0.0 0.0 0.00 0.00 0.00 87 1009.8
20260506132510 22 176 1.6 1.6 0.00 0.00 0.00 92 1009.8
20260506132014 21 173 0.0 0.0 0.00 0.00 0.00 93 1009.7
20260506131513 22 145 0.0 0.0 0.00 0.00 0.00 88 1009.8
20260506131013 22 152 0.0 0.0 0.00 0.00 0.00 89 1009.8
20260506130510 22 152 0.0 0.0 0.00 0.00 0.00 90 1009.9
20260506130035 22 92 0.0 0.0 0.00 0.00 0.00 94 1010.0
20260506125509 22 87 1.6 1.6 0.00 0.00 0.00 99 1010.1
20260506125013 21 116 0.0 0.0 0.00 0.00 0.00 95 1010.1
20260506124513 22 150 0.0 0.0 0.00 0.00 0.00 98 1009.9
20260506124014 21 96 0.0 0.0 0.00 0.00 0.00 98 1010.0
20260506123509 21 100 1.6 1.6 0.00 0.00 0.00 97 1010.1
20260506123025 21 96 0.0 0.0 0.00 0.00 0.00 99 1010.0
20260506122509 21 76 0.0 0.0 0.00 0.00 0.00 99 1010.0
20260506122014 22 177 0.0 0.0 0.00 0.00 0.00 99 1010.0
20260506121513 21 155 0.0 0.0 0.00 0.00 0.00 99 1010.1
20260506121013 21 105 0.0 0.0 0.00 0.00 0.00 99 1010.1
20260506120509 18 184 1.6 6.4 0.00 0.00 0.00 99 1010.0
20260506120034 18 319 0.0 0.0 0.00 0.00 0.00 99 1010.0
20260506115509 18 93 0.0 0.0 0.00 0.00 0.00 99 1010.1
20260506115012 18 175 0.0 0.0 0.00 0.00 0.00 99 1010.1
20260506114512 20 94 0.0 0.0 0.00 0.00 0.00 99 1010.2
20260506114013 20 175 0.0 0.0 0.00 0.00 0.00 99 1010.1
20260506113510 18 85 0.0 0.0 0.00 0.00 0.00 99 1010.1
20260506113024 18 83 0.0 0.0 0.00 0.00 0.00 99 1010.2
20260506112509 18 96 0.0 0.0 0.00 0.00 0.00 99 1009.9
20260506112013 18 303 0.0 0.0 0.00 0.00 0.00 99 1009.9
20260506111513 18 114 0.0 0.0 0.00 0.00 0.00 99 1010.1
20260506111014 20 281 0.0 0.0 0.00 0.00 0.00 99 1009.9
20260506110510 18 299 0.0 0.0 0.00 0.00 0.00 99 1010.0
20260506110032 18 176 0.0 0.0 0.00 0.00 0.00 99 1010.1
20260506105510 20 343 0.0 0.0 0.00 0.00 0.00 99 1010.0
20260506105013 18 86 0.0 0.0 0.00 0.00 0.00 99 1010.2
20260506104513 20 90 0.0 0.0 0.00 0.00 0.00 99 1010.1
20260506104013 20 264 0.0 0.0 0.00 0.00 0.00 99 1010.1
20260506103508 20 317 0.0 0.0 0.00 0.00 0.00 99 1010.2
20260506103023 18 91 0.0 0.0 0.00 0.00 0.00 99 1010.2
20260506102509 18 239 0.0 0.0 0.00 0.00 0.00 99 1010.2
20260506102013 18 359 0.0 0.0 0.00 0.00 0.00 99 1010.3
20260506101513 20 300 6.4 6.4 0.00 0.00 0.00 99 1010.2
20260506101013 18 48 1.6 1.6 0.00 0.00 0.00 99 1010.2
20260506100510 18 32 0.0 0.0 0.00 0.00 0.00 99 1010.2
20260506100036 17 8 0.0 0.0 0.00 0.00 0.00 99 1010.1
20260506095509 17 324 1.6 4.8 0.00 0.00 0.00 99 1010.2
20260506095013 17 334 0.0 0.0 0.00 0.00 0.00 99 1010.2
20260506094513 17 213 4.8 6.4 0.00 0.00 0.00 99 1010.2
20260506094014 17 109 1.6 4.8 0.00 0.00 0.00 99 1010.1
20260506093510 17 85 0.0 0.0 0.00 0.00 0.00 99 1010.2
20260506093023 18 88 1.6 1.6 0.00 0.00 0.00 99 1010.2
20260506092509 18 114 0.0 0.0 0.00 0.00 0.00 99 1010.1
20260506092013 18 23 1.6 8.0 0.00 0.00 0.00 99 1009.9
20260506091512 18 154 0.0 0.0 0.00 0.00 0.00 99 1009.9
20260506091012 17 331 4.8 9.7 0.00 0.00 0.00 99 1009.7
20260506090509 17 63 0.0 0.0 0.00 0.00 0.00 99 1009.7
20260506090032 17 170 0.0 0.0 0.00 0.00 0.00 99 1009.6
20260506085509 17 206 0.0 0.0 0.00 0.00 0.00 99 1009.5
20260506085013 17 238 0.0 0.0 0.00 0.00 0.00 99 1009.3
20260506084513 17 307 0.0 0.0 0.00 0.00 0.00 99 1009.4
20260506084013 17 280 0.0 0.0 0.00 0.00 0.00 99 1009.2
20260506083509 17 81 0.0 0.0 0.00 0.00 0.00 99 1009.5
20260506083023 17 232 0.0 0.0 0.00 0.00 0.00 99 1009.1
20260506082510 17 270 4.8 11.3 0.00 0.00 0.00 99 1009.2
20260506082013 17 257 3.2 3.2 0.00 0.00 0.00 99 1009.4
20260506081512 17 50 1.6 3.2 0.00 0.00 0.00 99 1009.2
20260506081015 17 149 1.6 1.6 0.00 0.00 0.00 99 1009.1
20260506080509 17 356 0.0 0.0 0.00 0.00 0.00 99 1009.1
20260506073509 17 225 0.0 0.0 0.00 0.00 0.00 99 1009.2
20260506073023 17 265 1.6 1.6 0.00 0.00 0.00 99 1009.2
20260506072509 17 216 3.2 3.2 0.00 0.00 0.00 99 1009.3
20260506072013 17 217 1.6 14.5 0.00 0.00 0.00 99 1009.1
20260506071514 17 244 8.0 11.3 0.00 0.00 0.00 99 1009.3
20260506071014 17 306 1.6 1.6 0.00 0.00 0.00 99 1009.3